Voltar ao catálogo

STARLINK-2217

AtivoComunicaçõesVLEO
NORAD 48568·PAYLOAD·🇺🇸 United States

Lançado May 15, 2021 de Cape Canaveral Space Force Station

Loading…

Próximas Passagens (próximas 24 horas)

TLE

AtualizadoSource: CelesTrak SupGP

Época: Sep 14, 2026, 21:55 UTC

1 48568C 21041R   26257.91368056 -.00019459  00000+0 -62546-3 0  2571
2 48568  53.1589 326.5383 0001003  82.7598 150.5025 15.31726305    19

Acompanhe STARLINK-2217 em tempo real com AllMySat

Download on the App Store